Total_Precipitation_Accumulation
0.00 0.00 0.01 0.01 0.01 0.01 0.01 0.01 0.02 0.03 0.03 0.05 0.09 0.17 0.26 0.32 0.37 0.49 0.63 0.69 0.75 0.92 1.34 1.75 1.92 2.04 2.33 2.49 2.64 2.58 2.70 2.94 3.13 3.46 3.41 3.54 3.90 4.25 4.42 4.61 4.63 4.58 4.48 4.47
0.01 0.01 0.01 0.01 0.01 0.01 0.01 0.01 0.02 0.04 0.05 0.07 0.14 0.24 0.29 0.34 0.40 0.50 0.64 0.70 0.71 0.91 1.23 1.66 1.87 2.19 2.39 2.49 2.71 2.81 2.89 3.24 3.71 4.23 4.67 5.01 5.36 5.37 5.50 5.49 5.39 5.13 4.96 4.82
0.01 0.01 0.01 0.01 0.01 0.01 0.01 0.01 0.02 0.03 0.07 0.10 0.15 0.32 0.41 0.46 0.53 0.58 0.67 0.74 0.83 1.03 1.32 1.52 1.75 2.02 2.27 2.48 2.71 2.90 3.22 3.79 4.60 5.09 5.48 5.97 6.29 6.07 5.86 5.60 5.48 5.36 5.28 5.20
0.01 0.01 0.01 0.01 0.01 0.01 0.02 0.02 0.02 0.04 0.06 0.13 0.15 0.38 0.61 0.67 0.76 0.72 0.82 0.95 1.09 1.20 1.33 1.50 1.69 1.96 2.27 2.61 2.74 2.94 3.49 4.18 4.83 5.34 5.93 6.48 6.72 6.78 6.62 6.10 5.62 5.19 4.85 4.60
0.00 0.01 0.01 0.01 0.01 0.01 0.02 0.01 0.01 0.04 0.07 0.10 0.14 0.33 0.74 0.96 1.05 1.03 1.10 1.12 1.15 1.17 1.28 1.45 1.65 1.82 1.97 2.26 2.70 3.05 3.63 4.28 4.91 5.59 6.30 6.74 6.97 6.99 6.61 5.84 5.09 4.58 4.23 3.87
0.00 0.00 0.01 0.02 0.01 0.01 0.01 0.01 0.02 0.05 0.08 0.14 0.14 0.30 0.84 1.21 1.42 1.42 1.32 1.29 1.25 1.16 1.17 1.25 1.46 1.59 1.88 2.15 2.48 2.98 3.32 3.92 4.60 5.16 5.68 5.85 6.03 6.01 5.64 5.20 4.72 4.30 3.74 3.21
0.01 0.01 0.01 0.01 0.01 0.01 0.01 0.03 0.11 0.21 0.26 0.25 0.18 0.38 0.90 1.24 1.26 1.25 1.24 1.32 1.30 1.13 1.14 1.35 1.61 1.56 1.82 2.10 2.43 2.84 3.24 3.59 4.07 4.56 5.02 5.27 5.46 5.37 4.91 4.46 4.03 3.57 3.06 2.62
0.07 0.05 0.03 0.02 0.02 0.02 0.02 0.04 0.19 0.35 0.39 0.41 0.39 0.69 1.12 1.16 1.07 1.03 1.02 1.08 1.19 1.20 1.18 1.25 1.41 1.50 1.75 1.96 2.20 2.54 2.87 3.20 3.38 3.57 3.93 4.20 4.41 4.30 3.96 3.47 2.99 2.68 2.41 2.13
0.15 0.13 0.05 0.02 0.02 0.02 0.03 0.06 0.13 0.15 0.21 0.41 0.74 1.02 1.37 1.33 1.22 1.13 1.01 1.01 1.11 1.08 1.05 1.13 1.26 1.40 1.60 1.89 2.22 2.46 2.56 2.71 2.87 3.01 3.08 3.12 3.25 3.18 2.95 2.66 2.35 2.07 1.79 1.57
0.14 0.19 0.08 0.04 0.03 0.04 0.05 0.06 0.09 0.16 0.37 0.58 0.85 1.32 1.65 1.79 1.69 1.56 1.25 1.14 1.08 1.10 1.09 1.10 1.19 1.32 1.42 1.51 1.82 2.10 2.15 2.24 2.31 2.35 2.39 2.41 2.41 2.29 2.20 2.05 1.88 1.63 1.46 1.30
0.15 0.21 0.13 0.06 0.07 0.08 0.07 0.09 0.12 0.19 0.28 0.56 0.94 1.52 1.75 2.03 2.11 1.95 1.62 1.44 1.38 1.33 1.24 1.19 1.21 1.22 1.29 1.36 1.48 1.71 1.90 1.90 1.96 2.04 1.99 1.89 1.91 1.85 1.80 1.72 1.63 1.52 1.45 1.34
0.17 0.23 0.22 0.14 0.11 0.09 0.09 0.12 0.19 0.34 0.36 0.41 0.84 1.71 2.03 2.15 2.11 1.87 1.67 1.52 1.46 1.35 1.20 1.13 1.10 1.04 1.09 1.20 1.29 1.41 1.58 1.60 1.59 1.63 1.66 1.69 1.69 1.66 1.57 1.45 1.34 1.22 1.12 1.02
0.14 0.28 0.50 0.51 0.40 0.20 0.14 0.14 0.19 0.24 0.35 0.48 0.90 1.90 2.40 2.34 2.18 1.90 1.72 1.67 1.64 1.53 1.34 1.22 1.10 1.01 1.04 1.15 1.19 1.24 1.35 1.45 1.47 1.44 1.44 1.52 1.47 1.42 1.29 1.21 1.18 1.09 0.98 0.93
0.11 0.27 0.62 1.06 0.82 0.45 0.26 0.19 0.22 0.32 0.52 0.65 0.91 1.37 1.69 1.83 1.91 1.91 2.01 2.04 1.86 1.64 1.44 1.26 1.18 1.11 1.10 1.16 1.16 1.18 1.21 1.27 1.33 1.36 1.41 1.40 1.34 1.25 1.19 1.06 0.93 0.86 0.80 0.86
0.16 0.33 0.34 0.39 0.39 0.39 0.39 0.32 0.29 0.35 0.44 0.73 1.04 1.36 1.65 1.75 1.77 1.83 1.97 1.88 1.64 1.49 1.34 1.20 1.17 1.21 1.17 1.13 1.11 1.10 1.16 1.16 1.26 1.30 1.30 1.27 1.22 1.17 1.11 1.03 0.94 0.81 0.73 0.70
0.20 0.34 0.34 0.39 0.34 0.43 0.41 0.40 0.40 0.46 0.54 0.76 1.11 1.54 1.74 1.75 1.72 1.80 1.89 1.81 1.62 1.38 1.23 1.16 1.15 1.21 1.17 1.11 1.06 1.01 1.06 1.10 1.17 1.21 1.18 1.14 1.10 1.12 1.05 0.98 0.94 0.84 0.73 0.67
0.28 0.44 0.58 0.59 0.39 0.58 0.84 0.63 0.61 0.68 0.70 0.88 1.28 1.51 1.56 1.65 1.66 1.72 1.81 1.88 1.76 1.51 1.42 1.43 1.45 1.42 1.30 1.17 1.07 1.05 1.09 1.13 1.17 1.21 1.14 1.13 1.10 1.05 0.99 0.83 0.79 0.78 0.74 0.63
0.28 0.47 0.60 0.59 0.72 1.17 1.05 0.57 0.62 0.72 0.76 0.81 0.95 1.10 1.27 1.39 1.44 1.59 1.76 1.89 1.86 1.74 1.71 1.72 1.67 1.52 1.38 1.26 1.19 1.13 1.09 1.14 1.21 1.18 1.10 1.01 1.00 0.95 0.89 0.84 0.77 0.71 0.68 0.63
0.16 0.40 0.65 0.82 1.10 1.28 1.03 0.61 0.56 0.83 1.00 0.79 0.82 0.85 0.88 0.92 1.09 1.46 1.62 1.69 1.71 1.72 1.68 1.58 1.50 1.42 1.34 1.23 1.16 1.07 1.04 1.02 1.05 1.01 0.94 0.85 0.84 0.90 0.91 0.87 0.80 0.73 0.67 0.64
0.16 0.30 0.68 0.92 1.24 1.51 1.25 0.57 0.38 0.71 1.33 0.93 0.83 0.85 0.88 1.00 1.23 1.32 1.26 1.24 1.28 1.32 1.34 1.35 1.32 1.25 1.19 1.10 0.99 0.93 0.94 0.94 0.92 0.89 0.87 0.76 0.73 0.80 0.86 0.82 0.76 0.66 0.62 0.60
0.47 0.53 0.73 0.92 1.18 1.33 0.75 0.43 0.55 1.22 1.55 1.04 0.90 0.90 0.99 1.15 1.12 0.90 0.83 0.89 0.99 1.08 1.13 1.16 1.22 1.21 1.08 0.90 0.84 0.86 0.86 0.85 0.74 0.72 0.77 0.76 0.73 0.72 0.72 0.72 0.74 0.66 0.60 0.59
0.59 0.76 0.85 0.98 1.30 1.40 0.60 0.49 0.87 1.05 0.83 0.81 0.85 0.85 0.86 0.81 0.68 0.65 0.66 0.69 0.73 0.86 0.98 0.99 1.03 0.99 0.87 0.80 0.82 0.85 0.82 0.73 0.67 0.72 0.79 0.77 0.74 0.63 0.63 0.73 0.75 0.68 0.61 0.57
0.48 0.61 0.81 1.00 1.18 0.91 0.49 0.51 0.58 0.57 0.64 0.66 0.67 0.63 0.57 0.56 0.52 0.50 0.56 0.62 0.66 0.72 0.81 0.83 0.81 0.80 0.82 0.83 0.86 0.86 0.79 0.69 0.70 0.74 0.76 0.75 0.69 0.66 0.66 0.71 0.73 0.69 0.63 0.54
0.45 0.33 0.44 0.65 0.67 0.47 0.40 0.37 0.37 0.41 0.51 0.53 0.56 0.60 0.51 0.52 0.51 0.49 0.51 0.59 0.67 0.71 0.69 0.69 0.70 0.70 0.75 0.75 0.73 0.71 0.63 0.62 0.71 0.75 0.72 0.71 0.73 0.72 0.66 0.63 0.59 0.58 0.54 0.48
0.42 0.40 0.52 0.62 0.50 0.43 0.41 0.34 0.29 0.32 0.37 0.41 0.48 0.57 0.56 0.53 0.58 0.55 0.55 0.61 0.65 0.67 0.67 0.68 0.69 0.69 0.66 0.65 0.62 0.59 0.59 0.64 0.71 0.68 0.63 0.63 0.67 0.67 0.63 0.52 0.45 0.41 0.35 0.27
0.32 0.42 0.59 0.62 0.47 0.49 0.44 0.32 0.29 0.36 0.39 0.40 0.45 0.55 0.52 0.50 0.58 0.62 0.63 0.60 0.57 0.59 0.61 0.64 0.60 0.60 0.60 0.56 0.55 0.56 0.55 0.55 0.61 0.61 0.56 0.53 0.55 0.54 0.49 0.44 0.38 0.30 0.20 0.16